Lid_Strength_Index
0 0 -0 -0 0 0 1 1 1 1 1 1 0 1 1 1 1 1 1 1 -1 -1 -1 -2 -2 -2 -2 -1 -1 -2 -2 -2 -2 -2 -2 -1 -1 -1 -2 -2 -2 -2 -2
0 0 0 0 -0 -0 0 0 0 0 0 1 1 1 1 1 1 1 1 1 0 -0 -1 -1 -2 -2 -2 -2 -2 -2 -2 -2 -2 -2 -1 -2 -2 -1 -1 -1 -1 -2 -2
2 1 0 0 0 -0 1 1 1 0 2 1 1 1 1 0 1 1 1 1 1 1 0 -1 -1 -2 -2 -2 -2 -2 -2 -2 -2 -2 -2 -2 -2 -2 -1 -1 -1 -1 -1
1 1 1 1 0 0 0 1 2 2 2 2 2 2 1 0 0 1 1 1 0 0 0 -0 -1 -1 -2 -2 -2 -2 -2 -1 -1 -1 -1 -1 -1 -1 -2 -2 -2 -2 -1
0 -0 0 0 0 0 1 1 2 2 3 3 3 2 2 2 2 1 1 1 1 1 1 0 -0 -1 -1 -1 -2 -2 -2 -2 -1 -1 -1 -1 -1 -1 -1 -1 -1 -1 -1
1 1 -0 -0 -0 0 1 1 2 2 2 2 2 2 3 3 2 2 1 1 1 1 1 1 0 1 0 -1 -2 -2 -2 -2 -1 -1 -1 -1 -1 -1 -1 -1 -1 -1 -1
2 2 0 1 0 1 2 3 2 1 2 2 3 4 3 3 3 2 2 1 1 0 0 0 1 1 0 -1 -1 -1 -2 -2 -2 -1 -1 -1 -1 -1 -1 -1 -1 -1 -1
4 3 2 2 2 2 3 3 3 2 2 3 4 3 5 5 4 3 2 2 2 1 0 0 0 0 1 1 1 -1 -1 -2 -2 -2 -1 -1 -1 -1 -1 -1 -1 -1 -1
5 4 4 4 3 3 3 3 3 4 3 3 4 3 6 7 6 5 4 3 2 2 1 0 0 0 0 1 1 0 -1 -1 -2 -2 -2 -1 -1 -1 -1 -1 -1 -1 -1
7 6 5 5 5 5 5 5 4 4 4 5 4 5 5 6 7 7 5 5 6 6 5 4 3 1 0 0 1 1 1 0 -1 -2 -2 -2 -2 -2 -2 -1 -1 -1 -1
8 8 7 7 6 6 6 6 6 6 6 6 6 7 5 6 5 8 9 8 7 6 6 7 6 5 2 4 3 3 4 2 -2 -2 -2 -2 -2 -2 -2 -2 -1 -1 -1
9 10 9 10 9 9 8 6 7 7 8 8 8 9 8 7 8 9 9 9 9 8 7 6 4 5 5 6 4 5 4 3 1 -2 -2 -2 -2 -1 -1 -1 -1 -1 -1
11 10 10 10 10 9 9 9 8 8 8 8 9 9 8 8 9 9 9 11 12 10 8 6 4 5 6 6 5 5 4 4 3 1 -1 -2 -1 -1 -1 -1 -1 -1 -1
14 13 13 13 12 11 11 11 11 12 12 12 11 11 10 10 10 9 11 12 14 11 10 9 6 8 8 8 7 6 5 5 3 2 2 -1 -1 -0 -0 -1 -1 -1 -1
13 14 14 14 14 14 13 13 13 14 14 13 13 13 12 11 10 9 10 11 12 14 15 11 10 8 9 8 8 7 7 6 4 4 4 4 3 1 0 -0 -0 -0 -0
15 15 15 14 14 14 14 14 14 14 14 14 14 14 14 13 12 11 11 11 11 13 15 12 11 10 10 9 8 9 9 6 5 6 5 4 4 3 1 1 0 0 0
15 15 15 15 15 15 15 15 15 14 14 14 14 14 14 14 13 13 12 12 11 12 13 12 12 11 12 11 9 9 8 9 9 8 7 4 6 5 4 3 1 1 1
16 16 16 16 16 15 16 16 15 15 15 15 15 15 15 14 15 14 14 13 12 12 12 14 13 13 13 11 11 11 8 10 10 9 8 6 7 7 7 5 4 2 1
16 16 16 16 16 16 16 16 15 15 15 15 16 16 16 16 16 15 14 14 13 12 13 14 14 13 13 12 12 11 11 10 10 11 9 9 9 9 9 6 6 5 5
17 17 17 16 16 16 16 15 15 15 15 15 16 16 16 16 15 15 14 14 13 13 13 14 14 13 13 13 12 13 13 12 12 12 11 12 11 11 10 9 9 7 6
17 17 17 17 17 17 15 15 14 15 16 16 16 16 15 13 11 11 12 13 13 13 13 13 12 12 13 13 14 13 14 13 13 12 13 14 13 13 12 10 9 8 7
17 17 18 18 18 16 13 11 12 16 16 16 17 16 15 13 13 10 10 9 9 12 12 13 12 13 13 13 12 13 13 14 15 13 14 13 13 14 12 11 10 10 9
18 18 19 18 18 18 13 12 12 16 16 17 15 15 14 13 12 13 10 8 9 8 8 10 12 12 12 11 11 12 12 12 13 13 14 15 13 14 13 11 10 9 8
18 19 19 19 19 18 13 13 12 16 16 16 15 15 15 14 12 11 11 11 11 10 10 9 10 10 10 9 9 9 10 11 13 13 13 17 14 14 13 13 10 9 9
19 19 18 18 19 19 14 13 13 15 15 15 14 14 13 12 9 8 10 11 11 10 8 7 7 6 6 6 7 10 11 12 14 14 13 13 14 15 15 15 11 12 11
17 17 17 18 17 18 15 13 13 15 15 15 14 13 9 9 8 8 9 10 11 11 10 10 10 9 8 9 7 9 11 13 13 14 12 15 15 16 17 15 15 15 14